FW8347 Weather Reports


time (UTC)temp
F
wind
direction
speed
knots
gust
knots
rain 1hr
in
rain 24hr
in
rain mn
in
humidity
%
barometer
mb
20260507070054 41 242 3.5 6.1 0.00 0.36 0.00 80 1012.4
20260507064550 43 221 3.5 10.4 0.00 0.47 0.00 75 1012.3
20260507063046 44 300 8.7 11.3 0.00 0.47 0.00 77 1012.1
20260507061548 44 296 7.8 12.2 0.00 0.47 0.00 77 1012.1
20260507060048 44 295 10.4 13.9 0.00 0.47 0.00 75 1012.4
20260507054546 44 293 11.3 14.8 0.00 0.56 0.00 76 1012.6
20260507053044 44 291 11.3 16.5 0.00 0.56 0.00 76 1012.6
20260507051544 44 287 11.3 15.6 0.00 0.56 0.00 76 1012.7
20260507050046 44 295 12.2 16.5 0.00 0.56 0.00 77 1012.8
20260507044555 44 290 10.4 13.9 0.00 0.61 0.00 79 1012.7
20260507043048 44 290 11.3 14.8 0.00 0.61 0.00 79 1012.6
20260507041547 45 302 11.3 14.8 0.00 0.61 0.00 85 1012.5
20260507040048 45 284 11.3 16.5 0.00 0.61 0.00 89 1012.5
20260507034547 44 300 10.4 13.9 0.00 0.62 0.61 91 1012.5
20260507033100 44 286 8.7 12.2 0.00 0.62 0.61 92 1012.3
20260507031555 43 284 7.8 10.4 0.00 0.62 0.61 93 1012.2
20260507024602 43 265 7.0 9.6 0.00 0.65 0.61 93 1012.1
20260507023043 42 276 5.2 8.7 0.00 0.65 0.61 92 1012.3
20260507021552 42 263 5.2 7.0 0.00 0.65 0.61 92 1012.3
20260507020056 42 243 4.3 7.8 0.00 0.65 0.61 92 1012.3
20260507014552 43 298 7.8 12.2 0.00 0.67 0.61 93 1012.2
20260507013042 42 302 8.7 13.9 0.00 0.67 0.61 92 1012.4
20260507011548 42 305 12.2 14.8 0.00 0.67 0.61 91 1012.2
20260507010047 42 315 11.3 13.9 0.00 0.67 0.61 90 1012.1
20260507004545 43 329 10.4 13.9 0.00 0.71 0.61 87 1011.7
20260507003045 44 329 5.2 7.8 0.00 0.71 0.61 87 1011.7
20260507001547 44 45 0.9 2.6 0.00 0.71 0.61 85 1011.2
20260507000049 44 0 0.9 3.5 0.00 0.71 0.61 85 1011.1
20260506234554 45 45 1.7 3.5 0.00 0.75 0.61 86 1011.1
20260506233050 45 45 2.6 5.2 0.00 0.75 0.61 86 1010.8
20260506231552 45 53 2.6 5.2 0.00 0.75 0.61 85 1010.7
20260506230041 45 84 0.0 2.6 0.00 0.75 0.61 85 1010.3
20260506224545 45 84 0.9 2.6 0.00 0.77 0.61 84 1009.9
20260506223045 45 84 1.7 3.5 0.00 0.77 0.61 84 1009.7
20260506221542 45 0 0.9 2.6 0.00 0.77 0.61 83 1009.9
20260506220051 45 0 0.0 0.0 0.00 0.77 0.61 83 1010.0
20260506214549 45 0 0.0 0.0 0.00 0.77 0.61 82 1010.2
20260506213047 45 0 0.0 1.7 0.00 0.77 0.61 82 1010.1
20260506211544 45 329 1.7 3.5 0.00 0.77 0.61 83 1010.1
20260506210048 45 0 0.0 1.7 0.00 0.77 0.61 85 1009.9
20260506204543 44 0 0.0 1.7 0.00 0.77 0.61 85 1010.0
20260506203042 45 329 0.0 2.6 0.00 0.77 0.61 86 1010.0
20260506201545 45 329 1.7 3.5 0.00 0.77 0.61 87 1010.1
20260506200044 44 329 0.9 3.5 0.00 0.77 0.61 87 1010.1
20260506194543 44 329 1.7 3.5 0.00 0.77 0.61 88 1010.0
20260506193048 44 329 0.0 3.5 0.00 0.77 0.61 89 1010.0
20260506191550 44 329 2.6 4.3 0.00 0.77 0.61 90 1010.1
20260506190049 43 329 2.6 4.3 0.00 0.77 0.61 91 1010.1
20260506184548 43 329 1.7 5.2 0.00 0.77 0.61 92 1010.1
20260506183048 43 333 3.5 7.8 0.00 0.77 0.61 93 1010.0
20260506181545 42 327 5.2 8.7 0.00 0.77 0.61 94 1010.2
20260506180043 42 339 7.0 9.6 0.00 0.77 0.61 94 1010.2
20260506174545 42 337 5.2 8.7 0.00 0.77 0.61 94 1010.0
20260506173122 42 346 4.3 7.0 0.00 0.77 0.61 95 1009.7
20260506171545 42 15 3.5 7.0 0.00 0.77 0.61 95 1009.5
20260506170046 42 34 3.5 7.8 0.00 0.77 0.61 95 1009.4
20260506164548 42 355 6.1 9.6 0.00 0.77 0.61 95 1009.6
20260506163044 42 5 6.1 8.7 0.00 0.77 0.61 95 1009.4
20260506161558 42 19 6.1 8.7 0.01 0.77 0.61 95 1009.5
20260506160047 42 32 6.1 8.7 0.01 0.77 0.61 95 1009.4
20260506154550 42 30 7.0 8.7 0.01 0.77 0.61 96 1009.4
20260506153051 41 36 6.1 9.6 0.01 0.77 0.61 95 1009.3
20260506151548 41 30 7.8 10.4 0.00 0.76 0.60 95 1009.4
20260506150045 41 28 7.8 9.6 0.00 0.76 0.60 95 1009.2
20260506144545 41 42 7.8 11.3 0.01 0.76 0.60 95 1009.0
20260506143045 42 57 7.0 9.6 0.01 0.76 0.60 95 1008.9
20260506141546 42 44 6.1 9.6 0.02 0.76 0.60 95 1008.9
20260506140045 42 57 5.2 8.7 0.02 0.76 0.60 95 1009.0
20260506134549 42 43 4.3 7.8 0.01 0.75 0.58 95 1008.9
20260506133041 43 77 4.3 8.7 0.02 0.75 0.58 95 1008.8
20260506131552 43 82 5.2 9.6 0.01 0.74 0.58 95 1008.8
20260506130100 43 76 3.5 7.0 0.02 0.74 0.58 95 1008.8
20260506124553 43 72 3.5 8.7 0.03 0.74 0.58 95 1008.8
20260506123047 43 80 4.3 7.8 0.02 0.73 0.57 95 1008.7
20260506121541 43 92 5.2 9.6 0.03 0.73 0.57 95 1008.7
20260506120042 43 88 4.3 10.4 0.02 0.72 0.56 95 1009.0
20260506114546 43 103 4.3 9.6 0.03 0.71 0.55 95 1008.6
20260506113052 43 84 6.1 10.4 0.05 0.71 0.55 95 1008.5
20260506111542 42 81 5.2 10.4 0.07 0.70 0.54 95 1008.7
20260506110052 43 103 6.1 10.4 0.09 0.70 0.54 95 1008.5
20260506104552 43 86 4.3 8.7 0.09 0.68 0.52 95 1008.8
20260506103053 43 72 6.1 10.4 0.06 0.65 0.49 95 1008.9
20260506101555 43 78 5.2 8.7 0.05 0.63 0.47 95 1009.1
20260506100101 43 86 4.3 9.6 0.04 0.61 0.45 95 1009.1
20260506094539 43 95 5.2 9.6 0.03 0.58 0.43 95 1008.9
20260506093044 43 95 5.2 10.4 0.05 0.58 0.43 95 1008.5
20260506091546 43 90 6.1 9.6 0.05 0.58 0.42 95 1008.3
20260506090046 43 95 3.5 8.7 0.06 0.57 0.41 95 1008.8
20260506084604 43 82 7.0 11.3 0.07 0.56 0.40 95 1008.7
20260506083041 43 86 3.5 8.7 0.09 0.54 0.38 95 1009.2
20260506081552 43 78 3.5 8.7 0.10 0.52 0.37 95 1009.2
20260506073047 43 90 6.1 10.4 0.10 0.45 0.29 95 1008.9
20260506071539 43 85 5.2 10.4 0.11 0.43 0.27 95 1008.7